GFSCGP_prec_precacc_132.txt.gz
Total_Precipitation_Accumulation
0.00 0.00 0.00 0.00 0.00 0.01 0.09 0.30 1.13 1.29 1.86 3.08 2.88 2.18 1.31 1.08 0.83 0.78 0.47 0.10 0.02 0.03 0.00 0.00 0.04 0.08 0.00 0.00 0.00 0.04 0.16 0.12 0.17 0.09 0.08 0.09 0.12 0.07 0.12 0.31 0.22 0.26 0.37 0.42
0.00 0.00 0.00 0.00 0.00 0.02 0.03 0.34 0.90 0.95 1.22 2.04 3.23 2.46 1.52 1.21 0.70 0.56 0.96 0.33 0.08 0.02 0.00 0.00 0.00 0.00 0.00 0.00 0.00 0.07 0.15 0.15 0.14 0.04 0.06 0.09 0.21 0.15 0.41 0.42 0.42 0.35 0.25 0.32
0.00 0.00 0.00 0.00 0.00 0.00 0.06 0.27 0.62 0.84 0.56 1.02 2.59 3.51 2.33 1.74 1.22 1.04 0.56 0.43 0.13 0.03 0.01 0.01 0.03 0.01 0.00 0.00 0.00 0.01 0.05 0.12 0.17 0.10 0.10 0.32 0.73 0.82 0.69 0.55 0.31 0.16 0.16 0.15
0.00 0.00 0.00 0.00 0.00 0.00 0.11 0.20 0.62 1.35 0.77 0.61 0.41 1.95 2.54 1.69 1.68 1.56 0.65 0.40 0.15 0.06 0.02 0.00 0.01 0.01 0.00 0.00 0.00 0.00 0.02 0.08 0.10 0.21 0.16 0.28 0.27 0.43 0.33 0.25 0.19 0.16 0.17 0.20
0.00 0.00 0.00 0.00 0.00 0.01 0.03 0.17 0.56 0.67 0.62 0.24 0.12 0.60 1.27 1.20 1.39 1.38 0.78 0.31 0.13 0.10 0.05 0.03 0.01 0.02 0.00 0.00 0.00 0.00 0.01 0.11 0.08 0.22 0.39 0.30 0.16 0.22 0.35 0.29 0.32 0.39 0.39 0.37
0.00 0.00 0.00 0.00 0.00 0.01 0.02 0.08 0.32 0.59 0.43 0.33 0.08 0.22 0.63 0.91 0.65 0.69 0.46 0.19 0.09 0.09 0.09 0.04 0.05 0.02 0.02 0.00 0.00 0.00 0.00 0.03 0.16 0.22 0.23 0.38 0.46 0.52 0.43 0.47 0.33 0.18 0.13 0.18
0.00 0.00 0.00 0.00 0.00 0.00 0.01 0.05 0.34 0.41 0.31 0.38 0.13 0.21 0.28 0.61 0.48 0.33 0.27 0.21 0.24 0.18 0.13 0.05 0.08 0.04 0.02 0.02 0.03 0.00 0.00 0.01 0.03 0.05 0.10 0.20 0.46 0.64 0.62 0.43 0.24 0.27 0.22 0.13
0.00 0.00 0.00 0.00 0.00 0.00 0.00 0.01 0.13 0.28 0.27 0.34 0.29 0.58 0.13 0.10 0.21 0.35 0.51 0.56 0.99 0.66 0.35 0.19 0.16 0.08 0.05 0.01 0.05 0.00 0.00 0.00 0.00 0.01 0.04 0.13 0.35 0.30 0.22 0.25 0.35 0.20 0.16 0.16
0.00 0.00 0.00 0.00 0.00 0.00 0.00 0.01 0.04 0.09 0.15 0.25 0.26 0.52 0.23 0.09 0.10 0.07 0.34 0.60 0.86 0.81 0.52 0.32 0.40 0.38 0.14 0.04 0.05 0.04 0.03 0.00 0.00 0.00 0.02 0.05 0.09 0.10 0.30 0.40 0.51 0.29 0.19 0.28
0.00 0.00 0.00 0.00 0.00 0.01 0.00 0.01 0.03 0.04 0.17 0.13 0.21 0.38 0.68 0.16 0.07 0.11 0.11 0.17 0.27 0.61 0.83 0.65 0.63 0.51 0.51 0.28 0.15 0.16 0.24 0.14 0.04 0.02 0.04 0.04 0.04 0.04 0.20 0.34 0.35 0.35 0.59 0.89
0.01 0.00 0.01 0.00 0.02 0.02 0.01 0.00 0.01 0.01 0.05 0.14 0.21 0.30 0.30 0.23 0.17 0.17 0.17 0.13 0.13 0.17 0.67 1.37 1.90 2.26 1.70 1.45 1.15 0.68 0.62 0.50 0.35 0.12 0.11 0.14 0.09 0.07 0.11 0.21 0.24 0.40 0.55 0.54
0.02 0.01 0.00 0.00 0.01 0.01 0.02 0.03 0.01 0.00 0.01 0.01 0.07 0.30 0.38 0.25 0.21 0.15 0.20 0.25 0.20 0.19 0.31 0.87 1.43 2.71 4.23 2.57 2.74 3.01 1.53 1.15 0.72 0.39 0.26 0.11 0.15 0.16 0.16 0.10 0.15 0.32 0.46 0.45
0.09 0.06 0.02 0.04 0.02 0.01 0.00 0.00 0.00 0.00 0.04 0.02 0.01 0.11 0.27 0.28 0.17 0.08 0.09 0.22 0.28 0.33 0.34 0.35 0.59 1.00 2.15 1.94 1.54 3.39 3.54 2.48 1.85 1.09 0.76 0.58 0.72 0.31 0.19 0.14 0.21 0.23 0.27 0.30
0.19 0.06 0.01 0.01 0.02 0.01 0.00 0.00 0.00 0.00 0.00 0.00 0.01 0.06 0.11 0.05 0.11 0.05 0.02 0.03 0.08 0.18 0.25 0.25 0.38 0.68 1.46 1.94 1.81 2.00 1.91 2.36 3.16 1.99 1.46 1.26 1.11 0.66 0.56 0.39 0.27 0.22 0.22 0.16
0.11 0.02 0.00 0.00 0.00 0.00 0.00 0.00 0.00 0.00 0.00 0.03 0.07 0.08 0.06 0.07 0.10 0.08 0.11 0.09 0.18 0.37 0.41 0.45 0.49 0.54 1.01 1.87 1.06 1.75 1.57 1.37 1.50 1.92 2.49 2.39 1.83 1.44 1.37 1.31 1.10 0.67 0.58 0.41
0.11 0.04 0.00 0.00 0.00 0.00 0.00 0.00 0.00 0.00 0.00 0.01 0.04 0.20 0.15 0.40 0.34 0.29 0.31 0.39 0.38 0.62 0.67 0.66 0.99 1.06 0.91 0.85 0.71 0.90 1.12 1.10 1.08 0.95 1.20 1.87 2.14 2.25 2.24 2.25 1.69 1.88 1.54 1.10
0.17 0.16 0.15 0.05 0.00 0.00 0.01 0.00 0.00 0.00 0.01 0.03 0.10 0.22 0.28 0.32 0.58 0.64 0.41 0.76 1.30 0.97 0.86 0.93 0.91 1.24 1.18 1.00 0.70 0.64 0.74 0.72 0.82 0.92 0.91 1.41 1.51 1.80 1.82 1.95 2.10 2.37 1.97 1.70
0.14 0.22 0.23 0.15 0.12 0.14 0.04 0.00 0.00 0.01 0.02 0.06 0.16 0.12 0.18 0.34 0.14 0.16 0.19 0.20 0.57 0.80 1.03 1.24 1.07 1.21 1.15 1.41 1.56 1.10 0.90 0.76 0.97 0.88 0.78 1.09 1.32 1.39 1.59 1.52 1.26 1.14 1.36 1.72
0.07 0.22 0.25 0.17 0.32 0.25 0.10 0.03 0.02 0.04 0.12 0.14 0.07 0.24 0.56 0.57 0.31 0.17 0.19 0.18 0.15 0.33 0.35 0.63 0.90 1.16 1.59 1.55 1.76 1.93 1.77 1.18 1.14 0.99 0.84 0.87 1.15 1.30 1.21 1.11 1.41 1.50 1.10 0.86
0.14 0.27 0.37 0.25 0.62 0.78 0.59 0.20 0.03 0.02 0.19 0.31 0.19 0.29 0.53 0.46 0.44 0.16 0.13 0.10 0.11 0.13 0.20 0.22 0.30 0.64 1.07 1.81 2.00 2.11 2.35 1.89 1.35 1.21 1.20 1.08 0.95 1.07 1.22 1.56 1.53 1.43 1.68 1.74
0.53 0.52 0.44 0.38 0.70 0.71 0.42 0.18 0.04 0.16 0.24 0.16 0.20 0.41 0.37 0.44 0.43 0.52 0.25 0.17 0.05 0.04 0.06 0.07 0.07 0.19 0.50 0.79 1.17 1.56 1.36 1.48 1.86 1.88 1.83 1.48 1.26 1.24 1.03 0.94 0.92 0.90 0.96 1.00
0.79 0.94 0.69 0.55 0.74 0.89 0.49 0.44 0.33 0.24 0.06 0.07 0.17 0.40 0.55 0.49 0.59 0.43 0.30 0.14 0.06 0.02 0.03 0.04 0.06 0.18 0.24 0.44 0.72 0.88 0.98 1.00 1.51 1.89 2.27 2.59 2.53 2.31 1.88 1.66 1.72 1.61 1.48 1.44
0.57 0.55 0.62 0.71 0.85 0.85 0.54 0.43 0.15 0.03 0.07 0.09 0.14 0.32 0.60 0.60 0.46 0.43 0.34 0.14 0.09 0.06 0.04 0.04 0.08 0.11 0.22 0.28 0.31 0.41 0.60 0.89 0.78 1.00 1.34 1.66 2.23 2.27 1.87 1.91 2.17 2.00 1.57 1.22
0.63 0.50 0.57 0.62 0.60 0.67 0.62 0.45 0.36 0.16 0.14 0.08 0.13 0.21 0.36 0.36 0.36 0.27 0.30 0.26 0.14 0.09 0.06 0.07 0.07 0.08 0.09 0.17 0.21 0.22 0.27 0.30 0.32 0.42 0.62 0.59 0.60 0.74 0.76 0.71 0.72 0.81 0.72 0.66
1.38 1.12 0.89 0.78 0.90 1.04 1.00 0.64 0.50 0.52 0.44 0.27 0.29 0.29 0.29 0.29 0.34 0.35 0.31 0.32 0.30 0.20 0.13 0.10 0.06 0.04 0.04 0.09 0.22 0.23 0.33 0.46 0.45 0.43 0.34 0.43 0.55 0.69 0.98 1.20 1.03 0.80 0.70 0.74
2.16 1.70 1.53 1.54 1.41 1.53 1.20 0.85 0.53 0.52 0.54 0.52 0.38 0.46 0.52 0.50 0.44 0.41 0.44 0.41 0.39 0.44 0.35 0.46 0.45 0.45 0.43 0.39 0.39 0.40 0.44 0.57 0.55 0.53 0.54 0.61 0.58 0.62 0.74 0.84 1.05 1.39 1.63 1.64

GFSCGP_prec_precacc_138.txt.gz
Total_Precipitation_Accumulation
0.00 0.00 0.00 0.00 0.00 0.01 0.09 0.30 1.14 1.37 1.89 3.13 2.93 2.26 1.34 1.08 0.83 0.80 0.49 0.11 0.04 0.06 0.02 0.00 0.06 0.08 0.00 0.00 0.02 0.09 0.23 0.23 0.18 0.09 0.08 0.09 0.12 0.07 0.12 0.31 0.22 0.33 0.53 0.44
0.00 0.00 0.00 0.00 0.00 0.02 0.03 0.34 0.90 0.95 1.22 2.06 3.24 2.46 1.55 1.25 0.74 0.58 0.97 0.37 0.11 0.04 0.05 0.01 0.01 0.00 0.00 0.00 0.00 0.14 0.27 0.23 0.16 0.05 0.06 0.09 0.21 0.15 0.41 0.42 0.42 0.37 0.27 0.32
0.00 0.00 0.00 0.00 0.00 0.00 0.06 0.27 0.62 0.86 0.56 1.02 2.59 3.53 2.35 1.77 1.29 1.07 0.57 0.44 0.14 0.03 0.08 0.09 0.03 0.01 0.00 0.00 0.00 0.01 0.10 0.16 0.21 0.10 0.10 0.33 0.74 0.82 0.69 0.55 0.31 0.16 0.16 0.15
0.00 0.00 0.00 0.00 0.00 0.00 0.11 0.20 0.62 1.36 0.77 0.62 0.43 2.00 2.61 1.71 1.71 1.61 0.68 0.40 0.16 0.07 0.15 0.06 0.02 0.01 0.00 0.00 0.00 0.00 0.05 0.14 0.16 0.23 0.16 0.28 0.27 0.43 0.33 0.25 0.19 0.16 0.17 0.20
0.00 0.00 0.00 0.00 0.00 0.01 0.03 0.17 0.56 0.67 0.62 0.24 0.12 0.62 1.35 1.28 1.45 1.43 0.78 0.31 0.13 0.11 0.10 0.06 0.04 0.02 0.00 0.00 0.00 0.00 0.03 0.19 0.16 0.29 0.46 0.34 0.16 0.22 0.35 0.29 0.32 0.40 0.39 0.37
0.00 0.00 0.00 0.00 0.00 0.01 0.02 0.08 0.32 0.59 0.43 0.33 0.08 0.23 0.80 1.22 0.80 0.71 0.46 0.19 0.09 0.09 0.10 0.05 0.11 0.02 0.02 0.00 0.00 0.00 0.01 0.09 0.22 0.28 0.29 0.42 0.48 0.53 0.44 0.47 0.33 0.18 0.13 0.18
0.00 0.00 0.00 0.00 0.00 0.00 0.01 0.05 0.34 0.41 0.31 0.38 0.15 0.23 0.38 0.67 0.49 0.33 0.30 0.22 0.24 0.18 0.13 0.06 0.09 0.05 0.02 0.02 0.03 0.00 0.00 0.02 0.06 0.06 0.12 0.20 0.48 0.67 0.67 0.45 0.24 0.27 0.22 0.13
0.00 0.00 0.00 0.00 0.00 0.00 0.00 0.01 0.13 0.29 0.31 0.44 0.32 0.61 0.18 0.10 0.21 0.35 0.52 0.58 0.99 0.68 0.36 0.20 0.17 0.09 0.05 0.02 0.05 0.00 0.00 0.00 0.01 0.03 0.08 0.21 0.41 0.35 0.28 0.26 0.35 0.20 0.16 0.16
0.00 0.00 0.00 0.00 0.00 0.00 0.00 0.01 0.04 0.09 0.15 0.31 0.33 0.57 0.26 0.09 0.10 0.07 0.34 0.63 0.86 0.81 0.52 0.33 0.40 0.38 0.14 0.04 0.05 0.04 0.03 0.00 0.00 0.00 0.05 0.13 0.16 0.12 0.31 0.44 0.53 0.29 0.20 0.28
0.00 0.00 0.00 0.00 0.00 0.01 0.00 0.01 0.03 0.04 0.20 0.20 0.40 0.89 0.94 0.26 0.27 0.11 0.11 0.19 0.28 0.61 0.83 0.66 0.63 0.54 0.51 0.28 0.15 0.16 0.24 0.14 0.04 0.02 0.05 0.05 0.04 0.04 0.26 0.43 0.49 0.37 0.60 0.89
0.01 0.00 0.01 0.00 0.02 0.03 0.01 0.00 0.01 0.01 0.07 0.24 0.42 0.80 0.88 0.39 0.23 0.18 0.17 0.13 0.13 0.18 0.67 1.37 1.90 2.26 1.73 1.45 1.15 0.68 0.62 0.50 0.35 0.12 0.11 0.15 0.10 0.07 0.16 0.28 0.31 0.47 0.58 0.56
0.02 0.01 0.01 0.01 0.03 0.09 0.12 0.07 0.06 0.02 0.16 0.16 0.24 0.66 0.73 0.41 0.34 0.16 0.20 0.25 0.21 0.19 0.32 0.88 1.46 2.73 4.25 2.58 2.74 3.01 1.53 1.15 0.72 0.39 0.26 0.11 0.16 0.17 0.18 0.11 0.17 0.40 0.51 0.47
0.09 0.06 0.02 0.04 0.07 0.03 0.00 0.02 0.17 0.14 0.14 0.06 0.09 0.18 0.32 0.37 0.27 0.09 0.09 0.22 0.28 0.33 0.36 0.39 0.72 1.11 2.27 2.03 1.56 3.39 3.54 2.48 1.85 1.09 0.76 0.58 0.72 0.31 0.19 0.17 0.23 0.29 0.36 0.37
0.19 0.06 0.01 0.03 0.08 0.07 0.02 0.02 0.00 0.05 0.09 0.03 0.02 0.10 0.36 0.39 0.41 0.12 0.02 0.03 0.08 0.18 0.25 0.31 0.58 1.44 2.02 2.22 1.98 2.12 1.93 2.36 3.16 1.99 1.46 1.26 1.11 0.66 0.56 0.39 0.28 0.29 0.31 0.27
0.11 0.02 0.00 0.00 0.00 0.00 0.02 0.02 0.02 0.01 0.01 0.06 0.35 0.12 0.66 0.36 0.16 0.08 0.13 0.11 0.19 0.38 0.53 0.61 0.61 0.83 1.75 2.66 1.73 2.48 2.10 1.49 1.53 1.94 2.50 2.40 1.83 1.45 1.37 1.34 1.13 0.70 0.68 0.52
0.11 0.04 0.00 0.00 0.00 0.00 0.00 0.00 0.01 0.04 0.12 0.06 0.26 0.50 0.31 0.43 0.34 0.29 0.32 0.48 0.51 0.71 0.72 0.76 1.09 1.20 1.23 1.28 1.05 1.40 2.09 2.20 1.42 1.12 1.32 1.99 2.26 2.36 2.36 2.36 1.79 1.96 1.62 1.18
0.17 0.16 0.15 0.05 0.01 0.00 0.01 0.00 0.00 0.00 0.02 0.03 0.13 0.63 0.59 0.58 0.59 0.64 0.41 0.78 1.41 1.21 1.05 0.95 0.93 1.29 1.24 1.14 0.87 0.78 0.95 1.19 1.20 1.25 1.19 1.54 1.59 1.92 1.97 2.09 2.32 2.54 2.13 1.92
0.14 0.22 0.23 0.15 0.13 0.18 0.07 0.05 0.02 0.02 0.03 0.06 0.17 0.26 0.46 0.46 0.16 0.16 0.19 0.21 0.59 0.88 1.30 1.33 1.16 1.26 1.18 1.45 1.61 1.17 0.97 0.82 1.09 0.99 0.83 1.17 1.36 1.46 1.68 1.64 1.41 1.30 1.56 1.99
0.07 0.22 0.25 0.17 0.32 0.25 0.11 0.07 0.04 0.04 0.12 0.14 0.09 0.29 0.81 0.63 0.36 0.19 0.19 0.18 0.15 0.34 0.38 0.82 1.29 1.29 1.68 1.58 1.79 2.02 1.86 1.26 1.21 1.12 0.95 0.99 1.28 1.41 1.32 1.21 1.56 1.71 1.29 1.05
0.14 0.27 0.37 0.25 0.62 0.78 0.59 0.21 0.03 0.02 0.19 0.31 0.23 0.33 0.94 0.56 0.56 0.34 0.13 0.10 0.11 0.13 0.20 0.22 0.34 0.72 1.13 1.87 2.03 2.23 2.56 2.03 1.49 1.43 1.45 1.29 1.13 1.29 1.38 1.70 1.64 1.57 1.90 1.94
0.53 0.52 0.44 0.38 0.70 0.71 0.42 0.19 0.04 0.16 0.24 0.17 0.21 0.42 0.38 0.45 0.46 0.54 0.25 0.17 0.05 0.04 0.06 0.07 0.08 0.20 0.51 0.80 1.19 1.66 1.53 1.65 2.17 2.16 2.12 1.80 1.58 1.52 1.23 1.04 0.96 0.93 1.00 1.05
0.79 0.94 0.69 0.55 0.74 0.90 0.49 0.44 0.33 0.24 0.06 0.07 0.17 0.40 0.55 0.49 0.59 0.43 0.30 0.14 0.06 0.02 0.03 0.04 0.06 0.18 0.25 0.44 0.74 0.95 1.16 1.15 1.75 2.29 2.79 3.07 2.98 2.68 2.15 1.83 1.82 1.68 1.55 1.51
0.57 0.55 0.62 0.72 0.86 0.86 0.54 0.43 0.16 0.03 0.07 0.09 0.14 0.32 0.60 0.60 0.46 0.43 0.34 0.14 0.09 0.06 0.04 0.04 0.08 0.11 0.23 0.28 0.32 0.44 0.65 0.94 0.96 1.32 1.87 2.07 2.57 2.64 2.18 2.13 2.28 2.07 1.65 1.37
0.63 0.50 0.57 0.62 0.60 0.67 0.62 0.45 0.36 0.16 0.14 0.08 0.13 0.21 0.36 0.36 0.36 0.27 0.30 0.26 0.14 0.09 0.07 0.08 0.07 0.08 0.09 0.17 0.25 0.27 0.33 0.43 0.38 0.47 0.67 0.69 0.70 0.85 0.86 0.80 0.79 0.83 0.73 0.67
1.38 1.12 0.90 0.78 0.90 1.04 1.00 0.64 0.50 0.52 0.44 0.27 0.29 0.29 0.29 0.29 0.34 0.35 0.31 0.32 0.30 0.20 0.14 0.10 0.06 0.04 0.04 0.10 0.25 0.29 0.39 0.57 0.48 0.47 0.38 0.46 0.56 0.70 0.98 1.20 1.04 0.80 0.70 0.74
2.16 1.70 1.53 1.54 1.41 1.54 1.20 0.85 0.53 0.52 0.54 0.52 0.38 0.46 0.52 0.50 0.44 0.41 0.44 0.41 0.39 0.44 0.35 0.47 0.46 0.45 0.43 0.40 0.40 0.44 0.50 0.64 0.60 0.56 0.56 0.62 0.59 0.63 0.77 0.84 1.05 1.40 1.65 1.66

GFSCGP_prec_precacc_141.txt.gz
Total_Precipitation_Accumulation
0.00 0.00 0.00 0.00 0.00 0.01 0.09 0.30 1.14 1.41 2.06 3.19 2.93 2.26 1.35 1.08 0.83 0.80 0.49 0.11 0.05 0.07 0.02 0.01 0.07 0.09 0.00 0.00 0.02 0.09 0.23 0.24 0.19 0.09 0.08 0.09 0.12 0.07 0.12 0.31 0.22 0.33 0.54 0.47
0.00 0.00 0.00 0.00 0.00 0.02 0.03 0.34 0.90 1.03 1.31 2.10 3.24 2.46 1.55 1.25 0.74 0.58 0.97 0.37 0.11 0.06 0.10 0.01 0.01 0.01 0.00 0.00 0.00 0.15 0.28 0.25 0.17 0.05 0.06 0.09 0.21 0.15 0.41 0.42 0.42 0.37 0.27 0.33
0.00 0.00 0.00 0.00 0.00 0.00 0.06 0.27 0.62 0.88 0.57 1.02 2.59 3.53 2.35 1.77 1.29 1.07 0.57 0.44 0.14 0.03 0.09 0.10 0.06 0.01 0.00 0.00 0.00 0.01 0.10 0.18 0.21 0.10 0.10 0.34 0.75 0.82 0.70 0.56 0.31 0.16 0.16 0.15
0.00 0.00 0.00 0.00 0.00 0.00 0.11 0.20 0.62 1.36 0.77 0.62 0.43 2.01 2.62 1.73 1.73 1.61 0.68 0.40 0.16 0.07 0.16 0.08 0.02 0.02 0.00 0.00 0.00 0.00 0.05 0.15 0.16 0.24 0.16 0.28 0.27 0.43 0.33 0.25 0.19 0.16 0.17 0.20
0.00 0.00 0.00 0.00 0.00 0.01 0.03 0.17 0.56 0.67 0.62 0.24 0.12 0.62 1.38 1.49 1.56 1.43 0.78 0.31 0.13 0.11 0.15 0.09 0.04 0.03 0.01 0.00 0.00 0.00 0.03 0.19 0.16 0.30 0.47 0.34 0.16 0.22 0.35 0.29 0.32 0.40 0.39 0.37
0.00 0.00 0.00 0.00 0.00 0.01 0.02 0.08 0.32 0.59 0.43 0.33 0.08 0.23 0.92 1.33 0.84 0.71 0.46 0.19 0.09 0.09 0.10 0.07 0.11 0.03 0.06 0.00 0.00 0.00 0.01 0.09 0.22 0.28 0.29 0.42 0.48 0.54 0.44 0.48 0.34 0.18 0.14 0.18
0.00 0.00 0.00 0.00 0.00 0.00 0.01 0.05 0.34 0.41 0.31 0.38 0.15 0.23 0.40 0.67 0.49 0.33 0.30 0.22 0.24 0.18 0.13 0.07 0.11 0.07 0.05 0.05 0.05 0.00 0.00 0.02 0.06 0.06 0.12 0.21 0.49 0.67 0.67 0.46 0.24 0.27 0.23 0.13
0.00 0.00 0.00 0.00 0.00 0.00 0.00 0.01 0.13 0.29 0.32 0.44 0.32 0.64 0.26 0.16 0.23 0.37 0.53 0.59 0.99 0.68 0.36 0.20 0.19 0.09 0.05 0.02 0.05 0.00 0.00 0.00 0.01 0.03 0.08 0.24 0.41 0.37 0.29 0.27 0.36 0.20 0.17 0.16
0.00 0.00 0.00 0.00 0.00 0.00 0.00 0.01 0.04 0.09 0.15 0.31 0.34 0.61 0.28 0.12 0.11 0.08 0.37 0.65 0.87 0.81 0.52 0.34 0.40 0.39 0.14 0.04 0.05 0.04 0.03 0.00 0.00 0.00 0.05 0.14 0.17 0.14 0.32 0.45 0.53 0.29 0.20 0.28
0.00 0.00 0.00 0.00 0.00 0.01 0.00 0.01 0.03 0.04 0.20 0.20 0.47 0.96 0.95 0.26 0.49 0.21 0.18 0.24 0.28 0.61 0.83 0.67 0.63 0.55 0.52 0.28 0.15 0.16 0.24 0.14 0.04 0.02 0.05 0.05 0.04 0.04 0.27 0.43 0.49 0.37 0.61 0.91
0.01 0.00 0.01 0.00 0.02 0.03 0.01 0.00 0.01 0.01 0.08 0.28 0.50 0.84 0.89 0.42 0.64 0.56 0.40 0.20 0.15 0.18 0.67 1.38 1.91 2.26 1.75 1.46 1.16 0.68 0.62 0.50 0.35 0.12 0.11 0.15 0.10 0.07 0.17 0.28 0.31 0.47 0.59 0.59
0.02 0.01 0.01 0.01 0.03 0.09 0.12 0.07 0.06 0.02 0.16 0.21 0.29 0.69 0.74 0.45 0.54 0.63 1.25 0.67 0.44 0.29 0.33 0.93 1.47 2.73 4.26 2.69 2.80 3.08 1.54 1.15 0.72 0.39 0.26 0.11 0.16 0.17 0.18 0.11 0.17 0.40 0.51 0.48
0.09 0.06 0.02 0.05 0.07 0.03 0.00 0.02 0.17 0.14 0.14 0.07 0.12 0.22 0.32 0.39 0.66 0.83 0.95 0.90 0.50 0.62 0.41 0.45 0.77 1.14 2.29 2.14 1.84 3.55 3.62 2.50 1.86 1.09 0.76 0.58 0.73 0.31 0.20 0.17 0.23 0.29 0.36 0.38
0.19 0.06 0.01 0.03 0.08 0.07 0.02 0.02 0.00 0.05 0.09 0.03 0.03 0.12 0.36 0.39 0.50 0.27 0.20 0.21 0.17 0.22 0.26 0.35 0.66 1.52 2.09 2.57 2.50 2.98 2.34 2.52 3.26 2.01 1.46 1.26 1.11 0.66 0.56 0.39 0.28 0.30 0.32 0.29
0.11 0.02 0.00 0.00 0.00 0.00 0.02 0.02 0.02 0.01 0.01 0.06 0.36 0.13 0.66 0.36 0.17 0.09 0.14 0.20 0.25 0.40 0.54 0.61 0.62 0.87 1.82 2.91 2.49 3.25 2.68 1.78 1.78 2.03 2.53 2.40 1.83 1.45 1.38 1.35 1.14 0.73 0.70 0.55
0.11 0.04 0.00 0.00 0.00 0.00 0.00 0.00 0.01 0.04 0.12 0.07 0.26 0.50 0.31 0.43 0.35 0.30 0.32 0.54 0.61 0.78 0.75 0.76 1.09 1.21 1.27 1.33 1.30 1.85 2.78 3.14 2.35 1.64 1.46 2.04 2.28 2.38 2.38 2.38 1.82 1.98 1.63 1.19
0.17 0.16 0.15 0.05 0.01 0.00 0.01 0.00 0.01 0.00 0.03 0.03 0.13 0.63 0.59 0.61 0.62 0.66 0.43 0.80 1.46 1.27 1.09 0.97 0.94 1.29 1.24 1.14 0.90 0.87 1.24 1.95 2.27 2.69 2.18 1.84 1.72 1.98 2.03 2.16 2.36 2.56 2.14 1.94
0.14 0.22 0.23 0.15 0.13 0.18 0.07 0.05 0.02 0.02 0.04 0.17 0.34 0.29 0.46 0.47 0.18 0.17 0.19 0.21 0.61 0.89 1.31 1.34 1.17 1.26 1.18 1.45 1.62 1.19 1.06 0.96 1.30 1.71 2.01 2.28 1.69 1.67 1.82 1.78 1.52 1.38 1.64 2.03
0.07 0.22 0.25 0.17 0.32 0.25 0.11 0.07 0.04 0.04 0.15 0.19 0.21 0.33 0.81 0.65 0.41 0.20 0.19 0.18 0.15 0.34 0.38 0.82 1.29 1.29 1.68 1.58 1.79 2.02 1.87 1.28 1.24 1.25 1.26 1.44 1.74 1.82 1.57 1.45 1.75 1.81 1.45 1.23
0.14 0.27 0.37 0.25 0.62 0.79 0.60 0.21 0.03 0.02 0.25 0.39 0.29 0.33 0.97 0.62 0.66 0.39 0.13 0.10 0.11 0.13 0.20 0.22 0.34 0.73 1.14 1.87 2.03 2.23 2.56 2.03 1.49 1.43 1.49 1.45 1.35 1.57 1.61 1.85 1.76 1.69 2.01 2.04
0.53 0.52 0.44 0.38 0.70 0.71 0.42 0.19 0.04 0.17 0.28 0.20 0.22 0.47 0.65 0.50 0.47 0.55 0.25 0.17 0.05 0.04 0.06 0.07 0.08 0.20 0.51 0.80 1.19 1.66 1.53 1.65 2.17 2.16 2.12 1.84 1.67 1.66 1.39 1.16 1.02 0.96 1.02 1.06
0.79 0.94 0.69 0.55 0.74 0.90 0.50 0.44 0.33 0.25 0.07 0.10 0.18 0.42 0.70 0.59 0.61 0.43 0.30 0.14 0.06 0.02 0.03 0.04 0.06 0.18 0.25 0.44 0.74 0.95 1.16 1.15 1.77 2.30 2.79 3.09 3.12 2.98 2.30 1.91 1.86 1.71 1.56 1.51
0.57 0.55 0.62 0.72 0.86 0.86 0.54 0.43 0.16 0.04 0.08 0.10 0.15 0.32 0.60 0.61 0.47 0.43 0.34 0.14 0.09 0.06 0.04 0.04 0.08 0.11 0.23 0.28 0.32 0.44 0.65 0.95 0.97 1.32 1.88 2.08 2.61 2.78 2.47 2.38 2.45 2.14 1.68 1.38
0.63 0.50 0.57 0.62 0.60 0.67 0.62 0.45 0.36 0.16 0.15 0.13 0.15 0.21 0.36 0.36 0.36 0.27 0.30 0.26 0.14 0.09 0.07 0.08 0.07 0.08 0.09 0.17 0.25 0.28 0.33 0.43 0.38 0.48 0.68 0.70 0.70 0.86 0.88 0.85 0.88 0.90 0.75 0.68
1.38 1.12 0.90 0.78 0.90 1.04 1.00 0.64 0.50 0.52 0.44 0.27 0.29 0.29 0.29 0.29 0.34 0.35 0.31 0.32 0.30 0.20 0.14 0.10 0.06 0.04 0.04 0.10 0.25 0.30 0.39 0.58 0.48 0.49 0.40 0.46 0.56 0.70 0.99 1.20 1.04 0.81 0.70 0.74
2.17 1.70 1.53 1.54 1.41 1.54 1.20 0.85 0.53 0.52 0.54 0.52 0.38 0.46 0.52 0.50 0.44 0.41 0.44 0.41 0.39 0.44 0.36 0.47 0.46 0.45 0.43 0.40 0.40 0.44 0.50 0.65 0.61 0.56 0.56 0.63 0.59 0.63 0.77 0.84 1.05 1.40 1.65 1.66

GFSCGP_prec_precacc_147.txt.gz
Total_Precipitation_Accumulation
0.00 0.00 0.00 0.00 0.00 0.01 0.09 0.30 1.14 1.41 2.06 3.21 2.94 2.26 1.35 1.09 0.83 0.80 0.49 0.12 0.06 0.08 0.02 0.01 0.07 0.09 0.00 0.00 0.02 0.09 0.23 0.24 0.21 0.10 0.11 0.16 0.13 0.07 0.12 0.31 0.23 0.34 0.54 0.47
0.00 0.00 0.00 0.00 0.00 0.02 0.03 0.34 0.91 1.05 1.32 2.11 3.25 2.47 1.57 1.27 0.74 0.58 0.97 0.37 0.11 0.06 0.11 0.01 0.01 0.01 0.00 0.00 0.00 0.15 0.28 0.25 0.17 0.05 0.06 0.12 0.23 0.15 0.41 0.42 0.44 0.39 0.28 0.34
0.00 0.00 0.00 0.00 0.00 0.00 0.06 0.27 0.62 0.88 0.57 1.03 2.61 3.57 2.38 1.84 1.34 1.07 0.57 0.45 0.15 0.05 0.10 0.11 0.06 0.01 0.00 0.00 0.00 0.01 0.10 0.18 0.21 0.10 0.10 0.37 0.77 0.83 0.72 0.57 0.32 0.16 0.16 0.15
0.00 0.00 0.00 0.00 0.00 0.00 0.11 0.20 0.62 1.36 0.77 0.62 0.43 2.01 2.62 1.75 1.79 1.65 0.69 0.40 0.17 0.08 0.17 0.08 0.03 0.02 0.00 0.00 0.00 0.00 0.05 0.15 0.16 0.24 0.16 0.28 0.27 0.43 0.34 0.26 0.20 0.16 0.17 0.21
0.00 0.00 0.00 0.00 0.00 0.01 0.03 0.17 0.56 0.67 0.62 0.24 0.12 0.62 1.39 1.53 1.64 1.50 0.79 0.31 0.16 0.15 0.15 0.10 0.06 0.03 0.01 0.00 0.00 0.00 0.03 0.19 0.16 0.30 0.47 0.34 0.16 0.22 0.35 0.29 0.32 0.40 0.39 0.39
0.00 0.00 0.00 0.00 0.00 0.01 0.02 0.08 0.32 0.59 0.44 0.33 0.08 0.23 0.92 1.36 0.90 0.80 0.52 0.23 0.10 0.11 0.10 0.07 0.20 0.10 0.08 0.01 0.00 0.00 0.01 0.09 0.22 0.28 0.29 0.42 0.48 0.54 0.44 0.48 0.34 0.18 0.14 0.19
0.00 0.00 0.00 0.00 0.00 0.00 0.01 0.05 0.34 0.41 0.31 0.38 0.15 0.23 0.41 0.70 0.53 0.34 0.35 0.28 0.28 0.19 0.14 0.09 0.15 0.09 0.05 0.05 0.06 0.00 0.00 0.02 0.06 0.06 0.12 0.21 0.49 0.67 0.67 0.46 0.24 0.27 0.23 0.13
0.00 0.00 0.00 0.00 0.00 0.00 0.00 0.01 0.13 0.29 0.32 0.44 0.32 0.65 0.28 0.21 0.24 0.38 0.55 0.66 1.10 0.71 0.36 0.23 0.19 0.13 0.06 0.02 0.05 0.00 0.00 0.00 0.01 0.03 0.08 0.24 0.41 0.37 0.29 0.27 0.36 0.20 0.17 0.17
0.00 0.00 0.00 0.00 0.00 0.00 0.00 0.01 0.04 0.09 0.15 0.31 0.34 0.61 0.29 0.14 0.11 0.10 0.41 0.74 0.99 0.86 0.54 0.35 0.41 0.40 0.14 0.04 0.05 0.04 0.03 0.00 0.00 0.00 0.05 0.14 0.17 0.14 0.32 0.45 0.54 0.30 0.20 0.29
0.00 0.00 0.00 0.00 0.00 0.01 0.00 0.01 0.03 0.04 0.20 0.21 0.47 0.97 0.95 0.26 0.49 0.23 0.23 0.36 0.40 0.70 0.86 0.68 0.63 0.56 0.53 0.28 0.16 0.18 0.24 0.14 0.04 0.02 0.05 0.05 0.04 0.04 0.27 0.45 0.50 0.38 0.62 0.91
0.01 0.00 0.01 0.00 0.02 0.03 0.01 0.00 0.01 0.01 0.08 0.28 0.50 0.84 0.89 0.42 0.64 0.56 0.44 0.27 0.23 0.25 0.71 1.39 1.92 2.27 1.79 1.49 1.16 0.70 0.62 0.50 0.35 0.12 0.11 0.15 0.10 0.07 0.17 0.29 0.31 0.47 0.60 0.59
0.02 0.01 0.01 0.01 0.03 0.09 0.12 0.07 0.06 0.02 0.16 0.21 0.29 0.69 0.74 0.45 0.54 0.63 1.38 0.79 0.62 0.34 0.35 0.95 1.50 2.78 4.29 2.75 2.81 3.16 1.63 1.16 0.72 0.39 0.26 0.11 0.16 0.17 0.18 0.12 0.17 0.40 0.52 0.49
0.09 0.06 0.02 0.05 0.07 0.03 0.00 0.02 0.17 0.14 0.14 0.07 0.12 0.22 0.32 0.39 0.66 0.83 1.48 1.43 0.75 0.80 0.57 0.54 0.84 1.22 2.35 2.17 1.91 3.77 3.89 2.75 2.07 1.18 0.77 0.59 0.73 0.31 0.20 0.17 0.23 0.29 0.36 0.38
0.19 0.06 0.01 0.03 0.08 0.07 0.02 0.02 0.00 0.05 0.09 0.03 0.03 0.12 0.36 0.39 0.50 0.28 0.38 1.12 0.89 0.65 0.88 0.65 1.04 1.79 2.36 2.79 2.84 3.40 2.92 2.92 3.58 2.25 1.61 1.33 1.13 0.67 0.56 0.39 0.29 0.30 0.32 0.31
0.11 0.02 0.00 0.00 0.00 0.00 0.02 0.02 0.02 0.01 0.01 0.06 0.36 0.13 0.66 0.36 0.17 0.09 0.20 0.31 0.51 0.76 0.89 0.85 0.93 1.12 2.35 3.39 2.89 3.67 3.72 2.83 2.23 2.37 2.73 2.50 1.91 1.51 1.42 1.37 1.15 0.73 0.70 0.56
0.11 0.04 0.00 0.00 0.00 0.00 0.00 0.00 0.01 0.04 0.12 0.07 0.26 0.50 0.31 0.43 0.35 0.33 0.40 0.69 0.78 0.94 0.84 0.95 1.38 1.40 1.48 1.70 1.76 2.58 4.00 4.48 3.04 1.92 1.67 2.20 2.41 2.45 2.43 2.46 1.92 2.08 1.70 1.22
0.17 0.16 0.15 0.05 0.01 0.00 0.01 0.00 0.01 0.00 0.03 0.03 0.13 0.63 0.59 0.61 0.65 0.73 0.53 0.89 1.52 1.45 1.21 1.03 1.06 1.41 1.28 1.17 0.93 0.90 1.44 2.45 3.03 3.19 2.40 2.06 1.91 2.13 2.09 2.19 2.47 2.68 2.29 2.15
0.14 0.22 0.23 0.15 0.13 0.18 0.07 0.05 0.02 0.02 0.04 0.17 0.34 0.29 0.46 0.49 0.19 0.18 0.19 0.25 0.69 0.97 1.37 1.35 1.17 1.27 1.18 1.45 1.62 1.19 1.08 1.03 1.48 2.01 2.42 2.66 1.91 1.86 1.97 1.90 1.62 1.45 1.75 2.11
0.07 0.22 0.25 0.17 0.32 0.25 0.11 0.07 0.04 0.04 0.16 0.20 0.22 0.34 0.82 0.67 0.42 0.21 0.19 0.18 0.22 0.45 0.47 0.85 1.29 1.29 1.68 1.58 1.79 2.02 1.87 1.30 1.31 1.33 1.42 1.82 2.09 2.21 1.92 1.70 2.00 2.01 1.57 1.31
0.14 0.27 0.37 0.25 0.62 0.79 0.60 0.21 0.03 0.02 0.26 0.39 0.29 0.33 0.97 0.63 0.68 0.39 0.14 0.10 0.11 0.16 0.24 0.23 0.34 0.73 1.14 1.87 2.03 2.23 2.56 2.03 1.50 1.45 1.51 1.50 1.60 1.92 2.17 2.39 2.15 1.99 2.35 2.28
0.53 0.52 0.44 0.38 0.70 0.71 0.42 0.19 0.04 0.17 0.28 0.20 0.22 0.47 0.65 0.50 0.47 0.55 0.25 0.17 0.05 0.04 0.06 0.07 0.08 0.20 0.51 0.80 1.19 1.66 1.54 1.65 2.18 2.20 2.13 1.86 1.72 1.81 1.74 1.71 1.46 1.30 1.35 1.40
0.79 0.94 0.69 0.55 0.74 0.90 0.50 0.44 0.33 0.25 0.08 0.13 0.22 0.44 0.71 0.59 0.61 0.44 0.30 0.14 0.06 0.02 0.03 0.04 0.06 0.18 0.25 0.44 0.74 0.96 1.17 1.15 1.78 2.35 2.80 3.09 3.12 3.00 2.42 2.16 2.46 2.35 1.98 1.90
0.57 0.55 0.62 0.72 0.86 0.86 0.54 0.43 0.16 0.05 0.10 0.14 0.15 0.32 0.60 0.61 0.47 0.43 0.34 0.14 0.09 0.06 0.04 0.04 0.08 0.11 0.23 0.28 0.32 0.45 0.65 0.95 0.99 1.34 1.90 2.09 2.62 2.79 2.53 2.66 2.84 2.57 2.15 1.83
0.63 0.50 0.57 0.62 0.60 0.67 0.62 0.45 0.37 0.16 0.16 0.16 0.16 0.22 0.37 0.37 0.36 0.28 0.30 0.26 0.14 0.09 0.07 0.08 0.07 0.08 0.09 0.17 0.25 0.28 0.34 0.43 0.40 0.53 0.70 0.71 0.71 0.86 0.88 0.85 0.91 1.06 1.09 1.11
1.38 1.12 0.90 0.78 0.90 1.04 1.01 0.65 0.51 0.52 0.44 0.28 0.29 0.29 0.29 0.30 0.34 0.36 0.31 0.32 0.30 0.20 0.14 0.10 0.06 0.04 0.04 0.10 0.25 0.30 0.40 0.58 0.49 0.53 0.44 0.47 0.57 0.70 0.99 1.20 1.04 0.81 0.73 0.82
2.17 1.70 1.53 1.54 1.41 1.54 1.20 0.85 0.53 0.52 0.54 0.52 0.38 0.46 0.52 0.50 0.44 0.41 0.44 0.41 0.39 0.44 0.36 0.47 0.46 0.45 0.43 0.40 0.40 0.45 0.50 0.66 0.62 0.57 0.57 0.64 0.59 0.63 0.77 0.84 1.05 1.40 1.65 1.67